Dewpoint
66 68 70 69 72 67 67 70 70 71 73 74 74 75 74 75 75 75 75 75 75 75 75 75 75 73 74 73 74 74 73 73 73 74 74 75 74 75 75 75 73 71 73
65 68 71 71 70 72 71 73 72 73 73 74 74 75 75 75 75 74 74 75 75 75 75 75 74 74 75 75 74 74 75 75 75 73 74 74 74 74 74 72 72 71 73
65 68 71 72 73 74 73 73 73 74 74 74 75 75 74 74 75 74 75 74 74 75 75 75 75 74 75 75 75 75 74 74 74 74 74 71 72 74 73 73 73 73 73
66 69 71 74 74 73 73 74 74 74 74 74 75 75 75 74 74 74 74 74 75 75 75 75 75 75 75 75 74 74 73 73 73 73 71 70 71 74 74 74 73 73 74
67 69 71 74 74 74 74 74 74 74 74 74 74 75 74 74 74 74 74 74 74 75 75 74 74 73 73 73 73 72 72 72 72 71 68 70 72 74 73 73 72 71 72
67 70 73 74 75 74 74 74 74 74 74 74 74 75 74 74 74 74 75 74 74 74 74 74 73 73 73 72 72 72 71 72 73 65 67 71 69 71 70 70 70 70 70
68 70 72 75 74 73 73 74 74 74 74 74 75 73 75 74 74 74 74 74 75 73 73 74 73 72 71 70 70 70 70 72 70 64 66 68 69 72 70 70 70 70 70
67 70 72 75 73 73 73 74 74 74 75 74 75 75 75 74 74 74 74 74 74 74 73 72 71 70 70 69 69 70 70 72 66 65 67 68 72 71 70 70 70 70 71
67 70 71 72 73 73 74 74 74 74 75 74 74 74 75 73 74 74 74 74 74 74 74 73 73 73 71 70 69 71 71 71 68 65 65 69 72 71 70 70 70 71 71
67 69 70 71 72 72 73 74 74 74 74 74 74 74 74 73 73 74 75 75 73 73 73 73 73 74 73 73 73 72 71 72 66 64 66 68 72 70 70 70 71 71 72
67 69 70 70 71 72 72 73 74 74 74 74 74 73 75 70 69 71 72 73 73 72 73 73 73 73 73 74 74 74 73 71 67 64 67 72 73 71 71 72 71 73 75
66 68 69 70 70 70 71 72 72 73 73 72 72 70 72 71 69 70 72 73 72 73 73 74 74 73 73 71 71 75 73 72 64 63 67 73 74 72 73 73 74 75 75
65 64 67 68 69 68 69 72 72 71 71 71 65 64 71 69 69 68 71 72 72 74 71 73 74 73 71 70 70 70 72 67 63 63 68 73 75 73 73 74 74 75 75
64 62 64 68 68 70 71 70 70 70 70 68 70 70 68 69 70 70 70 70 69 69 70 69 69 68 68 68 68 68 69 61 62 63 69 73 74 74 73 73 75 75 75
64 67 68 69 69 67 69 70 70 70 65 67 57 64 69 70 69 70 70 71 70 70 70 70 69 67 66 65 61 60 59 61 62 63 65 74 74 74 75 75 75 75 75
66 68 67 67 69 68 65 69 70 68 67 67 60 63 64 70 68 70 69 70 71 70 68 69 69 68 67 63 62 59 59 63 62 64 64 68 74 74 75 76 76 76 74
65 66 67 68 68 67 67 68 67 65 65 69 70 68 70 68 70 72 68 68 69 71 71 70 68 68 67 63 61 64 62 61 62 64 64 64 70 75 75 76 75 75 75
64 65 65 66 67 65 68 68 68 67 69 70 69 68 69 69 73 71 68 66 67 68 67 66 66 68 64 62 62 64 61 65 64 64 66 66 66 64 74 75 75 74 76
65 66 65 66 66 68 68 69 67 68 68 69 68 69 70 71 72 69 67 66 65 67 68 69 69 70 65 64 64 65 65 64 63 64 68 69 69 70 71 74 75 76 77
64 66 65 67 67 66 67 69 67 66 70 69 71 73 70 72 73 70 66 65 65 65 69 70 69 72 68 69 57 63 65 66 60 62 67 68 64 65 73 73 74 75 76
64 66 68 68 66 68 70 68 67 64 67 69 70 70 60 70 72 69 68 64 66 68 68 69 69 69 67 69 59 57 63 67 64 61 66 68 69 69 72 74 74 73 73
63 67 66 68 69 69 71 70 70 68 68 70 71 71 66 70 70 66 67 64 68 68 67 70 70 67 67 66 64 63 60 64 62 63 66 63 64 68 66 68 69 69 70
63 67 69 70 70 71 69 70 69 69 70 70 68 70 70 69 70 67 67 66 67 65 63 65 68 69 64 63 67 61 57 59 60 64 65 67 67 68 66 68 71 69 70
64 68 69 70 70 70 71 70 68 65 68 69 70 71 69 69 72 69 68 68 70 68 64 65 72 67 65 61 64 68 67 64 59 59 66 67 68 67 66 68 68 69 72
66 67 69 70 70 70 71 70 68 69 69 69 69 70 70 70 70 71 70 70 70 70 71 72 72 71 71 64 64 64 65 67 68 66 63 65 67 67 68 68 66 70 71
64 67 70 71 71 71 71 71 70 68 64 66 70 69 70 71 71 71 71 71 72 72 71 73 72 72 71 71 67 70 68 66 66 65 61 63 63 65 67 70 72 72 73
Lifted_Index
1 1 -0 -0 0 1 1 -0 -1 -2 -3 -4 -4 -4 -4 -4 -5 -5 -5 -5 -5 -5 -5 -5 -5 -4 -4 -4 -4 -4 -4 -4 -4 -4 -4 -4 -4 -4 -4 -4 -4 -4 -4
1 0 -1 -1 -1 -1 -0 -1 -2 -2 -3 -4 -4 -4 -4 -5 -5 -5 -5 -5 -5 -5 -5 -5 -5 -5 -5 -5 -5 -4 -4 -4 -4 -4 -4 -4 -4 -4 -4 -4 -4 -4 -4
0 -1 -2 -2 -2 -2 -2 -2 -3 -3 -3 -4 -4 -5 -5 -5 -5 -5 -5 -5 -5 -5 -5 -5 -5 -5 -5 -5 -5 -5 -5 -4 -4 -4 -4 -4 -4 -4 -4 -4 -4 -5 -5
-0 -1 -2 -3 -3 -3 -3 -3 -3 -3 -4 -4 -5 -5 -5 -5 -5 -5 -5 -5 -5 -5 -5 -5 -5 -5 -5 -5 -5 -5 -4 -4 -4 -4 -3 -4 -4 -5 -5 -5 -5 -5 -5
-1 -2 -3 -4 -4 -4 -4 -4 -4 -4 -4 -5 -5 -5 -5 -5 -5 -5 -5 -5 -5 -5 -5 -5 -5 -5 -5 -4 -4 -4 -4 -4 -4 -3 -3 -3 -4 -4 -4 -4 -4 -4 -4
-2 -3 -4 -4 -4 -4 -4 -4 -4 -4 -4 -5 -5 -5 -5 -5 -5 -5 -5 -5 -5 -5 -5 -5 -5 -4 -4 -4 -4 -4 -4 -4 -3 -2 -1 -2 -3 -3 -4 -4 -4 -4 -4
-2 -3 -4 -5 -4 -4 -4 -4 -4 -5 -5 -5 -5 -5 -5 -5 -5 -5 -6 -6 -6 -5 -5 -5 -4 -4 -3 -3 -3 -3 -3 -3 -3 -1 -1 -1 -2 -3 -3 -4 -4 -4 -4
-3 -4 -5 -5 -4 -4 -4 -5 -5 -5 -5 -5 -5 -5 -5 -5 -5 -6 -6 -6 -6 -5 -5 -5 -4 -3 -3 -2 -2 -2 -2 -3 -2 -1 -1 -1 -2 -3 -3 -4 -4 -4 -5
-3 -4 -5 -5 -4 -5 -5 -5 -5 -5 -5 -6 -6 -6 -5 -5 -5 -6 -6 -6 -6 -6 -6 -5 -4 -4 -3 -2 -2 -2 -2 -2 -2 -1 -1 -2 -3 -3 -4 -4 -4 -5 -5
-3 -4 -4 -5 -5 -5 -5 -6 -6 -6 -6 -6 -6 -5 -5 -5 -5 -5 -6 -6 -6 -6 -5 -5 -5 -4 -4 -4 -3 -3 -3 -3 -2 -1 -1 -2 -3 -4 -4 -4 -5 -5 -5
-3 -3 -4 -4 -5 -5 -6 -6 -6 -6 -5 -5 -5 -5 -5 -4 -4 -5 -5 -5 -5 -5 -5 -5 -5 -5 -5 -4 -4 -4 -5 -4 -3 -1 -1 -3 -4 -4 -5 -5 -5 -6 -6
-2 -2 -3 -3 -4 -5 -5 -5 -5 -5 -5 -4 -4 -4 -4 -4 -4 -4 -5 -5 -5 -5 -5 -5 -5 -5 -5 -4 -4 -5 -5 -5 -3 -1 -2 -3 -5 -5 -6 -6 -6 -6 -6
-1 -1 -1 -2 -4 -4 -5 -5 -5 -4 -4 -4 -3 -3 -4 -4 -4 -4 -4 -5 -5 -5 -4 -4 -5 -5 -4 -4 -4 -4 -5 -4 -2 -1 -2 -4 -5 -6 -6 -7 -6 -6 -6
-1 -0 -1 -2 -3 -4 -4 -4 -4 -4 -4 -4 -4 -4 -3 -3 -3 -4 -4 -4 -4 -4 -4 -4 -4 -4 -4 -4 -4 -4 -4 -2 -2 -2 -2 -4 -5 -6 -6 -6 -6 -6 -6
-2 -2 -1 -2 -2 -2 -3 -3 -3 -3 -3 -3 -3 -3 -4 -4 -4 -4 -4 -4 -4 -3 -3 -4 -4 -4 -4 -3 -3 -3 -3 -2 -2 -2 -3 -4 -5 -5 -6 -6 -6 -6 -6
-3 -3 -2 -2 -2 -2 -1 -2 -3 -3 -3 -3 -3 -3 -4 -5 -5 -5 -5 -4 -4 -4 -4 -4 -4 -4 -4 -3 -3 -2 -2 -3 -3 -3 -3 -4 -5 -5 -5 -6 -6 -6 -6
-3 -3 -3 -3 -3 -2 -2 -2 -2 -2 -3 -3 -4 -4 -5 -5 -5 -5 -4 -4 -4 -4 -4 -4 -4 -4 -4 -3 -3 -3 -3 -3 -4 -4 -4 -5 -5 -5 -5 -5 -5 -5 -6
-2 -2 -3 -3 -3 -3 -3 -3 -2 -2 -3 -4 -4 -5 -5 -5 -5 -4 -3 -3 -3 -3 -3 -3 -4 -4 -4 -3 -3 -3 -3 -3 -4 -4 -4 -4 -4 -4 -5 -5 -5 -5 -6
-2 -2 -2 -3 -2 -3 -3 -3 -3 -3 -3 -3 -4 -4 -4 -4 -4 -3 -2 -2 -2 -2 -3 -4 -4 -4 -4 -3 -3 -2 -2 -3 -3 -4 -4 -3 -3 -3 -4 -4 -5 -5 -6
-2 -2 -2 -2 -2 -3 -3 -3 -3 -3 -3 -3 -4 -4 -4 -4 -3 -2 -1 -0 -0 -1 -2 -4 -4 -4 -4 -3 -3 -3 -3 -3 -3 -3 -3 -2 -1 -2 -3 -4 -4 -5 -5
-1 -2 -3 -2 -2 -3 -3 -3 -3 -3 -3 -4 -4 -3 -3 -3 -3 -2 -1 0 1 -0 -2 -4 -4 -4 -3 -3 -3 -3 -3 -3 -3 -3 -2 -1 -1 -2 -3 -3 -4 -4 -4
-1 -2 -2 -3 -3 -3 -3 -3 -3 -3 -4 -4 -4 -4 -3 -3 -3 -3 -2 -0 -0 -1 -3 -3 -3 -3 -3 -2 -2 -2 -2 -2 -1 -1 -1 -0 -1 -2 -2 -2 -3 -3 -3
-1 -2 -2 -3 -3 -4 -3 -3 -3 -3 -4 -4 -4 -4 -4 -4 -4 -3 -2 -2 -2 -2 -3 -3 -3 -2 -2 -2 -2 -2 -2 -1 -1 -1 -0 0 -1 -1 -2 -2 -2 -2 -2
-1 -2 -2 -3 -3 -3 -3 -3 -3 -3 -3 -4 -4 -4 -4 -4 -4 -4 -4 -3 -3 -4 -4 -4 -4 -4 -3 -1 -1 -1 -2 -2 -1 -1 -1 -1 -1 -1 -1 -1 -2 -2 -2
-2 -2 -2 -3 -3 -3 -3 -3 -3 -3 -3 -3 -3 -4 -4 -4 -4 -4 -4 -4 -4 -5 -5 -5 -5 -5 -4 -3 -2 -2 -3 -2 -2 -2 -1 -1 -1 -1 -1 -1 -2 -2 -3
-2 -2 -3 -3 -3 -3 -3 -3 -3 -3 -3 -3 -3 -4 -4 -4 -4 -4 -4 -4 -5 -5 -5 -5 -5 -5 -4 -4 -3 -3 -3 -3 -2 -2 -1 -1 -1 -1 -1 -2 -2 -3 -3